Time,TemperatureF,DewpointF,PressureIn,WindDirection,WindDirectionDegrees,WindSpeedMPH,WindSpeedGustMPH,Humidity,HourlyPrecipIn,Conditions,Clouds,dailyrainin,SoftwareType,DateUTC
2013-11-23 00:01:00,26.3,13.9,30.39,NNE,23,5.4,7.6,59,0.00,,,0.00,WUHU216HW,2013-11-23 07:01:00,
2013-11-23 00:06:00,26.1,14.1,30.39,NNE,23,5.8,7.6,60,0.00,,,0.00,WUHU216HW,2013-11-23 07:06:00,
2013-11-23 00:11:00,25.7,14.1,30.39,NE,45,0.0,7.2,61,0.00,,,0.00,WUHU216HW,2013-11-23 07:11:00,
2013-11-23 00:16:00,25.6,14.3,30.39,ENE,68,1.3,5.8,62,0.00,,,0.00,WUHU216HW,2013-11-23 07:16:00,
2013-11-23 00:21:00,25.2,14.3,30.39,ESE,113,0.0,3.4,63,0.00,,,0.00,WUHU216HW,2013-11-23 07:21:00,
2013-11-23 00:26:00,25.2,14.3,30.39,NNE,23,0.4,3.4,63,0.00,,,0.00,WUHU216HW,2013-11-23 07:26:00,
2013-11-23 00:31:00,25.4,14.9,30.39,SSW,203,0.0,2.5,64,0.00,,,0.00,WUHU216HW,2013-11-23 07:31:00,
2013-11-23 00:36:00,25.6,15.0,30.39,SW,225,0.0,0.4,64,0.00,,,0.00,WUHU216HW,2013-11-23 07:36:00,
2013-11-23 00:41:00,25.9,15.3,30.38,SW,225,0.0,0.0,64,0.00,,,0.00,WUHU216HW,2013-11-23 07:41:00,
2013-11-23 00:46:00,25.9,15.3,30.38,SW,225,0.0,0.0,64,0.00,,,0.00,WUHU216HW,2013-11-23 07:46:00,
2013-11-23 00:51:00,26.1,15.8,30.38,SSW,203,1.1,2.0,65,0.00,,,0.00,WUHU216HW,2013-11-23 07:51:00,
2013-11-23 00:56:00,26.3,16.0,30.38,SW,225,0.0,2.0,65,0.00,,,0.00,WUHU216HW,2013-11-23 07:56:00,
2013-11-23 01:01:00,26.3,16.0,30.38,SW,225,0.0,3.1,65,0.00,,,0.00,WUHU216HW,2013-11-23 08:01:00,
2013-11-23 01:06:00,26.5,16.6,30.38,SW,225,1.6,3.1,66,0.00,,,0.00,WUHU216HW,2013-11-23 08:06:00,
2013-11-23 01:11:00,26.6,16.7,30.38,WSW,248,0.0,2.0,66,0.00,,,0.00,WUHU216HW,2013-11-23 08:11:00,
2013-11-23 01:16:00,26.6,16.7,30.38,WNW,293,0.0,1.8,66,0.00,,,0.00,WUHU216HW,2013-11-23 08:16:00,
2013-11-23 01:21:00,26.8,16.9,30.38,WSW,248,0.7,2.5,66,0.00,,,0.00,WUHU216HW,2013-11-23 08:21:00,
2013-11-23 01:26:00,27.0,17.1,30.38,NNE,23,0.0,2.5,66,0.00,,,0.00,WUHU216HW,2013-11-23 08:26:00,
2013-11-23 01:31:00,26.8,16.9,30.38,NW,315,0.0,1.1,66,0.00,,,0.00,WUHU216HW,2013-11-23 08:31:00,
2013-11-23 01:36:00,26.8,16.9,30.38,North,0,0.0,0.0,66,0.00,,,0.00,WUHU216HW,2013-11-23 08:36:00,
2013-11-23 01:41:00,26.6,16.7,30.38,NNE,23,0.0,2.9,66,0.00,,,0.00,WUHU216HW,2013-11-23 08:41:00,
2013-11-23 01:46:00,26.5,16.6,30.38,North,0,0.0,2.9,66,0.00,,,0.00,WUHU216HW,2013-11-23 08:46:00,
2013-11-23 01:51:00,26.5,16.6,30.38,NNE,23,0.0,1.8,66,0.00,,,0.00,WUHU216HW,2013-11-23 08:51:00,
2013-11-23 01:56:00,26.3,16.4,30.38,North,0,0.0,1.1,66,0.00,,,0.00,WUHU216HW,2013-11-23 08:56:00,
2013-11-23 02:01:00,26.3,16.4,30.38,NNE,23,0.0,0.0,66,0.00,,,0.00,WUHU216HW,2013-11-23 09:01:00,
2013-11-23 02:06:00,26.3,16.4,30.38,NNE,23,0.0,0.0,66,0.00,,,0.00,WUHU216HW,2013-11-23 09:06:00,
2013-11-23 02:11:00,26.3,16.4,30.38,North,0,0.0,0.0,66,0.00,,,0.00,WUHU216HW,2013-11-23 09:11:00,
2013-11-23 02:16:00,26.3,16.4,30.38,North,0,0.0,0.0,66,0.00,,,0.00,WUHU216HW,2013-11-23 09:16:00,
2013-11-23 02:21:00,26.3,16.0,30.39,NE,45,0.0,0.0,65,0.00,,,0.00,WUHU216HW,2013-11-23 09:21:00,
2013-11-23 02:26:00,26.3,16.0,30.39,NNE,23,0.0,0.0,65,0.00,,,0.00,WUHU216HW,2013-11-23 09:26:00,
2013-11-23 02:31:00,26.3,16.0,30.39,NNE,23,0.0,0.0,65,0.00,,,0.00,WUHU216HW,2013-11-23 09:31:00,
2013-11-23 02:36:00,26.5,16.2,30.39,NNE,23,0.0,0.0,65,0.00,,,0.00,WUHU216HW,2013-11-23 09:36:00,
2013-11-23 02:41:00,26.5,16.2,30.38,NNE,23,0.0,0.0,65,0.00,,,0.00,WUHU216HW,2013-11-23 09:41:00,
2013-11-23 02:46:00,26.5,16.2,30.39,NNE,23,0.0,0.0,65,0.00,,,0.00,WUHU216HW,2013-11-23 09:46:00,
2013-11-23 02:51:00,26.5,16.2,30.38,NNE,23,0.0,0.0,65,0.00,,,0.00,WUHU216HW,2013-11-23 09:51:00,
2013-11-23 02:56:00,26.3,16.0,30.38,NNE,23,0.0,0.0,65,0.00,,,0.00,WUHU216HW,2013-11-23 09:56:00,
2013-11-23 03:01:00,26.1,15.8,30.38,ENE,68,0.0,2.7,65,0.00,,,0.00,WUHU216HW,2013-11-23 10:01:00,
2013-11-23 03:06:00,25.9,16.0,30.38,ENE,68,0.0,2.7,66,0.00,,,0.00,WUHU216HW,2013-11-23 10:06:00,
2013-11-23 03:11:00,25.9,16.0,30.38,NNE,23,0.0,0.0,66,0.00,,,0.00,WUHU216HW,2013-11-23 10:11:00,
2013-11-23 03:16:00,25.9,16.0,30.38,NE,45,0.0,0.0,66,0.00,,,0.00,WUHU216HW,2013-11-23 10:16:00,
2013-11-23 03:21:00,25.7,15.8,30.37,ENE,68,0.0,0.0,66,0.00,,,0.00,WUHU216HW,2013-11-23 10:21:00,
2013-11-23 03:26:00,25.6,16.0,30.37,ENE,68,2.5,2.5,67,0.00,,,0.00,WUHU216HW,2013-11-23 10:26:00,
2013-11-23 03:31:00,25.6,16.0,30.38,ENE,68,0.0,2.5,67,0.00,,,0.00,WUHU216HW,2013-11-23 10:31:00,
2013-11-23 03:36:00,25.6,16.0,30.38,NE,45,0.0,1.6,67,0.00,,,0.00,WUHU216HW,2013-11-23 10:36:00,
2013-11-23 03:41:00,25.6,16.0,30.38,East,90,0.0,0.0,67,0.00,,,0.00,WUHU216HW,2013-11-23 10:41:00,
2013-11-23 03:46:00,25.6,16.0,30.38,East,90,0.0,0.0,67,0.00,,,0.00,WUHU216HW,2013-11-23 10:46:00,
2013-11-23 03:51:00,25.6,16.0,30.38,ENE,68,0.0,0.0,67,0.00,,,0.00,WUHU216HW,2013-11-23 10:51:00,
2013-11-23 03:56:00,25.6,15.7,30.38,ENE,68,0.0,0.0,66,0.00,,,0.00,WUHU216HW,2013-11-23 10:56:00,
2013-11-23 04:01:00,25.6,15.7,30.38,East,90,0.0,0.0,66,0.00,,,0.00,WUHU216HW,2013-11-23 11:01:00,
2013-11-23 04:06:00,25.6,15.7,30.38,ESE,113,0.0,0.0,66,0.00,,,0.00,WUHU216HW,2013-11-23 11:06:00,
2013-11-23 04:11:00,25.6,15.7,30.38,SE,135,0.0,0.0,66,0.00,,,0.00,WUHU216HW,2013-11-23 11:11:00,
2013-11-23 04:16:00,25.6,15.7,30.38,East,90,0.0,0.0,66,0.00,,,0.00,WUHU216HW,2013-11-23 11:16:00,
2013-11-23 04:21:00,25.6,15.7,30.39,East,90,0.0,0.0,66,0.00,,,0.00,WUHU216HW,2013-11-23 11:21:00,
2013-11-23 04:26:00,25.7,15.8,30.38,ENE,68,0.0,0.0,66,0.00,,,0.00,WUHU216HW,2013-11-23 11:26:00,
2013-11-23 04:31:00,25.9,16.0,30.38,SE,135,0.0,0.0,66,0.00,,,0.00,WUHU216HW,2013-11-23 11:31:00,
2013-11-23 04:36:00,25.7,15.8,30.38,SE,135,0.0,0.0,66,0.00,,,0.00,WUHU216HW,2013-11-23 11:36:00,
2013-11-23 04:41:00,25.9,16.0,30.38,SE,135,0.0,0.0,66,0.00,,,0.00,WUHU216HW,2013-11-23 11:41:00,
2013-11-23 04:46:00,26.1,16.2,30.38,SSW,203,0.0,0.0,66,0.00,,,0.00,WUHU216HW,2013-11-23 11:46:00,
2013-11-23 04:51:00,26.3,16.4,30.38,SSW,203,0.0,0.0,66,0.00,,,0.00,WUHU216HW,2013-11-23 11:51:00,
2013-11-23 04:56:00,26.3,16.4,30.38,East,90,0.0,0.0,66,0.00,,,0.00,WUHU216HW,2013-11-23 11:56:00,
2013-11-23 05:01:00,25.9,16.0,30.38,East,90,0.0,1.1,66,0.00,,,0.00,WUHU216HW,2013-11-23 12:01:00,
2013-11-23 05:06:00,25.9,16.0,30.38,ESE,113,0.0,1.1,66,0.00,,,0.00,WUHU216HW,2013-11-23 12:06:00,
2013-11-23 05:11:00,25.7,15.8,30.38,NE,45,1.6,2.0,66,0.00,,,0.00,WUHU216HW,2013-11-23 12:11:00,
2013-11-23 05:16:00,25.6,15.7,30.38,East,90,0.0,2.0,66,0.00,,,0.00,WUHU216HW,2013-11-23 12:16:00,
2013-11-23 05:21:00,25.6,15.7,30.37,ESE,113,0.0,1.6,66,0.00,,,0.00,WUHU216HW,2013-11-23 12:21:00,
2013-11-23 05:26:00,25.7,15.8,30.37,East,90,0.0,0.0,66,0.00,,,0.00,WUHU216HW,2013-11-23 12:26:00,
2013-11-23 05:31:00,25.7,15.8,30.37,ESE,113,0.0,0.0,66,0.00,,,0.00,WUHU216HW,2013-11-23 12:31:00,
2013-11-23 05:36:00,25.9,16.0,30.37,SSE,158,0.0,0.0,66,0.00,,,0.00,WUHU216HW,2013-11-23 12:36:00,
2013-11-23 05:41:00,26.1,16.2,30.37,SSE,158,1.8,3.8,66,0.00,,,0.00,WUHU216HW,2013-11-23 12:41:00,
2013-11-23 05:46:00,26.1,16.2,30.37,South,180,1.3,3.8,66,0.00,,,0.00,WUHU216HW,2013-11-23 12:46:00,
2013-11-23 05:51:00,26.3,16.4,30.37,SSW,203,0.0,2.0,66,0.00,,,0.00,WUHU216HW,2013-11-23 12:51:00,
2013-11-23 05:56:00,26.5,16.6,30.37,SW,225,0.0,1.8,66,0.00,,,0.00,WUHU216HW,2013-11-23 12:56:00,
2013-11-23 06:01:00,26.6,16.7,30.37,SSW,203,0.0,0.0,66,0.00,,,0.00,WUHU216HW,2013-11-23 13:01:00,
2013-11-23 06:06:00,26.6,17.1,30.37,SSW,203,0.0,0.0,67,0.00,,,0.00,WUHU216HW,2013-11-23 13:06:00,
2013-11-23 06:11:00,26.6,17.1,30.37,SW,225,0.0,0.0,67,0.00,,,0.00,WUHU216HW,2013-11-23 13:11:00,
2013-11-23 06:16:00,26.8,17.3,30.37,SW,225,0.0,0.0,67,0.00,,,0.00,WUHU216HW,2013-11-23 13:16:00,
2013-11-23 06:21:00,26.8,17.3,30.37,West,270,0.0,0.0,67,0.00,,,0.00,WUHU216HW,2013-11-23 13:21:00,
2013-11-23 06:26:00,27.0,17.5,30.37,West,270,0.0,0.0,67,0.00,,,0.00,WUHU216HW,2013-11-23 13:26:00,
2013-11-23 06:31:00,27.0,17.5,30.37,West,270,0.0,0.0,67,0.00,,,0.00,WUHU216HW,2013-11-23 13:31:00,
2013-11-23 06:36:00,27.0,17.5,30.37,WNW,293,0.0,0.0,67,0.00,,,0.00,WUHU216HW,2013-11-23 13:36:00,
2013-11-23 06:41:00,27.0,17.5,30.37,North,0,0.0,0.0,67,0.00,,,0.00,WUHU216HW,2013-11-23 13:41:00,
2013-11-23 06:46:00,26.8,16.9,30.38,North,0,0.0,0.0,66,0.00,,,0.00,WUHU216HW,2013-11-23 13:46:00,
2013-11-23 06:51:00,26.6,16.7,30.38,NE,45,0.0,0.0,66,0.00,,,0.00,WUHU216HW,2013-11-23 13:51:00,
2013-11-23 06:56:00,26.6,16.7,30.38,North,0,0.0,0.0,66,0.00,,,0.00,WUHU216HW,2013-11-23 13:56:00,
2013-11-23 07:01:00,26.6,16.7,30.37,North,0,0.0,0.0,66,0.00,,,0.00,WUHU216HW,2013-11-23 14:01:00,
2013-11-23 07:06:00,26.6,16.7,30.38,NE,45,0.0,0.0,66,0.00,,,0.00,WUHU216HW,2013-11-23 14:06:00,
2013-11-23 07:11:00,26.5,16.6,30.38,ENE,68,0.0,0.0,66,0.00,,,0.00,WUHU216HW,2013-11-23 14:11:00,
2013-11-23 07:16:00,26.3,16.4,30.38,ENE,68,2.2,3.6,66,0.00,,,0.00,WUHU216HW,2013-11-23 14:16:00,
2013-11-23 07:21:00,25.9,16.0,30.38,NNE,23,0.0,3.8,66,0.00,,,0.00,WUHU216HW,2013-11-23 14:21:00,
2013-11-23 07:26:00,25.9,16.0,30.38,ENE,68,0.0,3.8,66,0.00,,,0.00,WUHU216HW,2013-11-23 14:26:00,
2013-11-23 07:31:00,25.9,16.0,30.38,NE,45,0.0,0.0,66,0.00,,,0.00,WUHU216HW,2013-11-23 14:31:00,
2013-11-23 07:36:00,25.9,16.0,30.38,NE,45,0.0,0.0,66,0.00,,,0.00,WUHU216HW,2013-11-23 14:36:00,
2013-11-23 07:41:00,26.1,16.2,30.38,East,90,0.0,0.0,66,0.00,,,0.00,WUHU216HW,2013-11-23 14:41:00,
2013-11-23 07:46:00,26.3,16.4,30.38,ESE,113,0.0,0.0,66,0.00,,,0.00,WUHU216HW,2013-11-23 14:46:00,
2013-11-23 07:51:00,26.3,16.4,30.38,NE,45,0.0,0.0,66,0.00,,,0.00,WUHU216HW,2013-11-23 14:51:00,
2013-11-23 07:56:00,26.1,16.2,30.38,East,90,0.0,0.0,66,0.00,,,0.00,WUHU216HW,2013-11-23 14:56:00,
2013-11-23 08:01:00,26.3,16.4,30.38,ENE,68,0.0,0.0,66,0.00,,,0.00,WUHU216HW,2013-11-23 15:01:00,
2013-11-23 08:06:00,26.3,16.4,30.38,NE,45,2.7,2.7,66,0.00,,,0.00,WUHU216HW,2013-11-23 15:06:00,
2013-11-23 08:11:00,26.3,16.4,30.38,NE,45,0.0,2.7,66,0.00,,,0.00,WUHU216HW,2013-11-23 15:11:00,
2013-11-23 08:16:00,26.3,16.0,30.38,ENE,68,1.8,2.7,65,0.00,,,0.00,WUHU216HW,2013-11-23 15:16:00,
2013-11-23 08:21:00,26.3,16.0,30.39,ESE,113,0.0,3.4,65,0.00,,,0.00,WUHU216HW,2013-11-23 15:21:00,
2013-11-23 08:26:00,26.3,15.7,30.38,SE,135,0.0,3.4,64,0.00,,,0.00,WUHU216HW,2013-11-23 15:26:00,
2013-11-23 08:31:00,26.5,15.8,30.38,East,90,0.0,1.8,64,0.00,,,0.00,WUHU216HW,2013-11-23 15:31:00,
2013-11-23 08:36:00,26.8,16.2,30.38,NE,45,0.0,0.0,64,0.00,,,0.00,WUHU216HW,2013-11-23 15:36:00,
2013-11-23 08:41:00,27.0,16.4,30.38,NNE,23,0.0,0.0,64,0.00,,,0.00,WUHU216HW,2013-11-23 15:41:00,
2013-11-23 08:46:00,27.4,16.7,30.39,East,90,0.0,0.0,64,0.00,,,0.00,WUHU216HW,2013-11-23 15:46:00,
2013-11-23 08:51:00,27.5,16.6,30.38,NNE,23,0.0,0.0,63,0.00,,,0.00,WUHU216HW,2013-11-23 15:51:00,
2013-11-23 08:56:00,27.5,16.6,30.39,North,0,0.0,0.0,63,0.00,,,0.00,WUHU216HW,2013-11-23 15:56:00,
2013-11-23 09:01:00,27.7,16.7,30.39,North,0,0.0,0.0,63,0.00,,,0.00,WUHU216HW,2013-11-23 16:01:00,
2013-11-23 09:06:00,27.7,16.7,30.39,NNE,23,1.8,2.0,63,0.00,,,0.00,WUHU216HW,2013-11-23 16:06:00,
2013-11-23 09:11:00,27.7,16.7,30.39,NNW,338,1.1,2.0,63,0.00,,,0.00,WUHU216HW,2013-11-23 16:11:00,
2013-11-23 09:16:00,27.9,16.9,30.39,NNW,338,0.0,2.0,63,0.00,,,0.00,WUHU216HW,2013-11-23 16:16:00,
2013-11-23 09:21:00,27.9,16.9,30.39,North,0,2.0,4.9,63,0.00,,,0.00,WUHU216HW,2013-11-23 16:21:00,
2013-11-23 09:27:00,27.9,16.9,30.38,NE,45,1.8,4.9,63,0.00,,,0.00,WUHU216HW,2013-11-23 16:27:00,
2013-11-23 09:32:00,27.9,17.3,30.38,North,0,2.2,4.7,64,0.00,,,0.00,WUHU216HW,2013-11-23 16:32:00,
2013-11-23 09:37:00,27.9,17.3,30.38,NE,45,3.4,4.7,64,0.00,,,0.00,WUHU216HW,2013-11-23 16:37:00,
2013-11-23 09:42:00,28.3,17.6,30.38,NNE,23,3.8,4.7,64,0.00,,,0.00,WUHU216HW,2013-11-23 16:42:00,
2013-11-23 09:47:00,28.4,17.8,30.38,NNW,338,0.0,3.8,64,0.00,,,0.00,WUHU216HW,2013-11-23 16:47:00,
2013-11-23 09:52:00,28.6,17.7,30.38,NNE,23,3.6,3.8,63,0.00,,,0.00,WUHU216HW,2013-11-23 16:52:00,
2013-11-23 09:57:00,28.8,17.8,30.38,North,0,0.4,4.0,63,0.00,,,0.00,WUHU216HW,2013-11-23 16:57:00,
2013-11-23 10:02:00,29.0,17.9,30.38,North,0,1.1,4.0,63,0.00,,,0.00,WUHU216HW,2013-11-23 17:02:00,
2013-11-23 10:07:00,29.0,17.6,30.38,North,0,2.9,4.9,62,0.00,,,0.00,WUHU216HW,2013-11-23 17:07:00,
2013-11-23 10:12:00,29.0,17.6,30.38,NNE,23,0.0,4.9,62,0.00,,,0.00,WUHU216HW,2013-11-23 17:12:00,
2013-11-23 10:17:00,29.0,17.6,30.38,NNW,338,0.0,3.6,62,0.00,,,0.00,WUHU216HW,2013-11-23 17:17:00,
2013-11-23 10:22:00,29.2,17.7,30.37,NNE,23,2.7,5.1,62,0.00,,,0.00,WUHU216HW,2013-11-23 17:22:00,
2013-11-23 10:27:00,29.2,17.7,30.38,NNE,23,0.0,5.1,62,0.00,,,0.00,WUHU216HW,2013-11-23 17:27:00,
2013-11-23 10:32:00,29.2,17.7,30.37,NNE,23,0.0,3.6,62,0.00,,,0.00,WUHU216HW,2013-11-23 17:32:00,
2013-11-23 10:37:00,29.2,17.7,30.37,NNE,23,1.6,3.6,62,0.00,,,0.00,WUHU216HW,2013-11-23 17:37:00,
2013-11-23 10:42:00,29.2,17.7,30.37,ENE,68,1.8,3.8,62,0.00,,,0.00,WUHU216HW,2013-11-23 17:42:00,
2013-11-23 10:47:00,29.2,17.7,30.37,ENE,68,1.1,3.8,62,0.00,,,0.00,WUHU216HW,2013-11-23 17:47:00,
2013-11-23 10:52:00,29.2,17.7,30.37,NE,45,2.7,3.8,62,0.00,,,0.00,WUHU216HW,2013-11-23 17:52:00,
2013-11-23 10:57:00,29.2,17.7,30.37,ENE,68,0.0,4.5,62,0.00,,,0.00,WUHU216HW,2013-11-23 17:57:00,
2013-11-23 11:02:00,29.5,18.1,30.36,NNW,338,0.0,4.5,62,0.00,,,0.00,WUHU216HW,2013-11-23 18:02:00,
2013-11-23 11:07:00,29.7,18.3,30.36,North,0,0.7,3.1,62,0.00,,,0.00,WUHU216HW,2013-11-23 18:07:00,
2013-11-23 11:12:00,29.9,18.4,30.36,NNE,23,0.0,3.1,62,0.00,,,0.00,WUHU216HW,2013-11-23 18:12:00,
2013-11-23 11:17:00,30.1,18.2,30.36,ENE,68,2.5,4.0,61,0.00,,,0.00,WUHU216HW,2013-11-23 18:17:00,
2013-11-23 11:22:00,29.9,18.0,30.36,North,0,0.0,4.0,61,0.00,,,0.00,WUHU216HW,2013-11-23 18:22:00,
2013-11-23 11:27:00,30.1,18.2,30.36,NNW,338,0.4,2.5,61,0.00,,,0.00,WUHU216HW,2013-11-23 18:27:00,
2013-11-23 11:32:00,29.9,18.0,30.36,NE,45,0.0,3.1,61,0.00,,,0.00,WUHU216HW,2013-11-23 18:32:00,
2013-11-23 11:37:00,29.9,18.0,30.35,NNE,23,0.0,3.1,61,0.00,,,0.00,WUHU216HW,2013-11-23 18:37:00,
2013-11-23 11:42:00,30.1,18.2,30.35,NW,315,0.2,2.9,61,0.00,,,0.00,WUHU216HW,2013-11-23 18:42:00,
2013-11-23 11:47:00,30.2,18.4,30.35,North,0,1.8,3.8,61,0.00,,,0.00,WUHU216HW,2013-11-23 18:47:00,
2013-11-23 11:52:00,30.4,18.5,30.35,NE,45,1.8,3.8,61,0.00,,,0.00,WUHU216HW,2013-11-23 18:52:00,
2013-11-23 11:57:00,30.4,18.2,30.34,North,0,0.9,2.5,60,0.00,,,0.00,WUHU216HW,2013-11-23 18:57:00,
2013-11-23 12:02:00,30.6,18.4,30.34,NNW,338,0.0,1.8,60,0.00,,,0.00,WUHU216HW,2013-11-23 19:02:00,
2013-11-23 12:07:00,31.0,18.7,30.34,NE,45,2.9,3.1,60,0.00,,,0.00,WUHU216HW,2013-11-23 19:07:00,
2013-11-23 12:12:00,30.8,18.9,30.34,NNW,338,4.7,4.7,61,0.00,,,0.00,WUHU216HW,2013-11-23 19:12:00,
2013-11-23 12:17:00,30.8,18.9,30.33,NE,45,1.1,5.1,61,0.00,,,0.00,WUHU216HW,2013-11-23 19:17:00,
2013-11-23 12:22:00,30.8,19.3,30.33,WNW,293,2.5,5.1,62,0.00,,,0.00,WUHU216HW,2013-11-23 19:22:00,
2013-11-23 12:27:00,31.3,19.8,30.33,North,0,0.9,3.6,62,0.00,,,0.00,WUHU216HW,2013-11-23 19:27:00,
2013-11-23 12:32:00,31.5,20.0,30.32,WNW,293,1.6,3.4,62,0.00,,,0.00,WUHU216HW,2013-11-23 19:32:00,
2013-11-23 12:37:00,31.9,20.3,30.32,NNW,338,1.8,4.3,62,0.00,,,0.00,WUHU216HW,2013-11-23 19:37:00,
2013-11-23 12:42:00,32.0,20.5,30.32,WNW,293,2.5,4.3,62,0.00,,,0.00,WUHU216HW,2013-11-23 19:42:00,
2013-11-23 12:47:00,32.0,20.5,30.32,WSW,248,1.3,3.6,62,0.00,,,0.00,WUHU216HW,2013-11-23 19:47:00,
2013-11-23 12:52:00,32.4,20.9,30.32,North,0,0.0,3.6,62,0.00,,,0.00,WUHU216HW,2013-11-23 19:52:00,
2013-11-23 12:57:00,32.0,20.2,30.31,North,0,0.0,2.5,61,0.00,,,0.00,WUHU216HW,2013-11-23 19:57:00,
2013-11-23 13:02:00,31.9,20.0,30.31,NNE,23,0.0,3.6,61,0.00,,,0.00,WUHU216HW,2013-11-23 20:02:00,
2013-11-23 13:07:00,32.0,20.2,30.31,WSW,248,0.0,3.6,61,0.00,,,0.00,WUHU216HW,2013-11-23 20:07:00,
2013-11-23 13:12:00,32.2,20.4,30.31,West,270,0.0,3.4,61,0.00,,,0.00,WUHU216HW,2013-11-23 20:12:00,
2013-11-23 13:17:00,32.2,20.4,30.31,WNW,293,0.0,3.4,61,0.00,,,0.00,WUHU216HW,2013-11-23 20:17:00,
2013-11-23 13:22:00,32.4,20.5,30.30,WNW,293,4.0,4.0,61,0.00,,,0.00,WUHU216HW,2013-11-23 20:22:00,
2013-11-23 13:27:00,32.6,20.3,30.30,NNW,338,0.0,4.0,60,0.00,,,0.00,WUHU216HW,2013-11-23 20:27:00,
2013-11-23 13:32:00,32.2,20.0,30.30,NNW,338,0.0,4.0,60,0.00,,,0.00,WUHU216HW,2013-11-23 20:32:00,
2013-11-23 13:37:00,32.2,20.0,30.30,NNW,338,2.2,3.6,60,0.00,,,0.00,WUHU216HW,2013-11-23 20:37:00,
2013-11-23 13:42:00,32.4,20.2,30.30,WSW,248,0.0,3.6,60,0.00,,,0.00,WUHU216HW,2013-11-23 20:42:00,
2013-11-23 13:47:00,32.6,20.3,30.29,North,0,0.0,2.2,60,0.00,,,0.00,WUHU216HW,2013-11-23 20:47:00,
2013-11-23 13:52:00,32.8,20.0,30.29,NNW,338,0.0,0.0,59,0.00,,,0.00,WUHU216HW,2013-11-23 20:52:00,
2013-11-23 13:57:00,32.6,19.9,30.29,NNW,338,1.1,2.9,59,0.00,,,0.00,WUHU216HW,2013-11-23 20:57:00,
2013-11-23 14:02:00,32.6,19.9,30.29,WNW,293,0.0,2.9,59,0.00,,,0.00,WUHU216HW,2013-11-23 21:02:00,
2013-11-23 14:07:00,32.8,20.0,30.29,NW,315,0.0,1.1,59,0.00,,,0.00,WUHU216HW,2013-11-23 21:07:00,
2013-11-23 14:12:00,32.8,20.0,30.29,WSW,248,0.0,0.0,59,0.00,,,0.00,WUHU216HW,2013-11-23 21:12:00,
2013-11-23 14:17:00,32.9,20.2,30.28,South,180,0.0,0.0,59,0.00,,,0.00,WUHU216HW,2013-11-23 21:17:00,
2013-11-23 14:22:00,33.1,20.3,30.28,SSW,203,0.0,0.0,59,0.00,,,0.00,WUHU216HW,2013-11-23 21:22:00,
2013-11-23 14:27:00,33.1,19.9,30.28,East,90,0.0,0.0,58,0.00,,,0.00,WUHU216HW,2013-11-23 21:27:00,
2013-11-23 14:32:00,32.6,19.5,30.28,ENE,68,0.0,0.0,58,0.00,,,0.00,WUHU216HW,2013-11-23 21:32:00,
2013-11-23 14:37:00,32.4,19.3,30.28,North,0,0.0,0.0,58,0.00,,,0.00,WUHU216HW,2013-11-23 21:37:00,
2013-11-23 14:42:00,32.8,19.6,30.28,WNW,293,0.0,1.6,58,0.00,,,0.00,WUHU216HW,2013-11-23 21:42:00,
2013-11-23 14:47:00,32.9,19.7,30.28,WSW,248,0.0,1.6,58,0.00,,,0.00,WUHU216HW,2013-11-23 21:47:00,
2013-11-23 14:52:00,33.3,20.1,30.28,North,0,0.2,1.3,58,0.00,,,0.00,WUHU216HW,2013-11-23 21:52:00,
2013-11-23 14:57:00,33.1,19.9,30.27,NNE,23,0.0,1.3,58,0.00,,,0.00,WUHU216HW,2013-11-23 21:57:00,
2013-11-23 15:02:00,32.9,19.7,30.27,NE,45,0.0,0.9,58,0.00,,,0.00,WUHU216HW,2013-11-23 22:02:00,
2013-11-23 15:07:00,32.9,19.7,30.27,North,0,0.0,1.6,58,0.00,,,0.00,WUHU216HW,2013-11-23 22:07:00,
2013-11-23 15:12:00,33.1,19.9,30.27,North,0,0.0,1.6,58,0.00,,,0.00,WUHU216HW,2013-11-23 22:12:00,
2013-11-23 15:17:00,33.5,20.3,30.27,NW,315,0.0,0.0,58,0.00,,,0.00,WUHU216HW,2013-11-23 22:17:00,
2013-11-23 15:22:00,33.1,19.4,30.27,North,0,0.0,2.5,57,0.00,,,0.00,WUHU216HW,2013-11-23 22:22:00,
2013-11-23 15:27:00,33.1,19.4,30.27,NNE,23,2.5,2.5,57,0.00,,,0.00,WUHU216HW,2013-11-23 22:27:00,
2013-11-23 15:32:00,33.1,19.4,30.27,SW,225,1.1,2.5,57,0.00,,,0.00,WUHU216HW,2013-11-23 22:32:00,
2013-11-23 15:37:00,33.5,20.3,30.27,West,270,0.7,2.7,58,0.00,,,0.00,WUHU216HW,2013-11-23 22:37:00,
2013-11-23 15:42:00,33.5,19.8,30.27,NNW,338,0.0,2.7,57,0.00,,,0.00,WUHU216HW,2013-11-23 22:42:00,
2013-11-23 15:47:00,33.3,19.6,30.27,North,0,0.0,2.2,57,0.00,,,0.00,WUHU216HW,2013-11-23 22:47:00,
2013-11-23 15:52:00,33.3,19.6,30.27,North,0,0.0,0.0,57,0.00,,,0.00,WUHU216HW,2013-11-23 22:52:00,
2013-11-23 15:57:00,33.1,19.1,30.26,North,0,0.0,0.0,56,0.00,,,0.00,WUHU216HW,2013-11-23 22:57:00,
2013-11-23 16:02:00,33.1,19.4,30.26,NW,315,0.0,0.0,57,0.00,,,0.00,WUHU216HW,2013-11-23 23:02:00,
2013-11-23 16:07:00,33.1,19.4,30.26,West,270,0.0,0.0,57,0.00,,,0.00,WUHU216HW,2013-11-23 23:07:00,
2013-11-23 16:09:00,33.1,19.4,30.26,WNW,293,0.0,0.0,57,0.00,,,0.00,WUHU216HW,2013-11-23 23:09:00,
2013-11-23 16:14:00,33.1,19.4,30.26,WNW,293,0.0,0.0,57,0.00,,,0.00,WUHU216HW,2013-11-23 23:14:00,
2013-11-23 16:19:00,32.9,19.4,30.26,NNW,338,0.0,0.0,57,0.00,,,0.00,WUHU216HW,2013-11-23 23:19:00,
2013-11-23 16:24:00,32.8,19.2,30.26,North,0,0.0,1.8,57,0.00,,,0.00,WUHU216HW,2013-11-23 23:24:00,
2013-11-23 16:29:00,32.4,18.8,30.26,North,0,0.0,1.8,57,0.00,,,0.00,WUHU216HW,2013-11-23 23:29:00,
2013-11-23 16:34:00,32.2,18.6,30.26,NW,315,0.0,0.4,57,0.00,,,0.00,WUHU216HW,2013-11-23 23:34:00,
2013-11-23 16:39:00,32.0,18.6,30.26,NNE,23,0.0,0.0,57,0.00,,,0.00,WUHU216HW,2013-11-23 23:39:00,
2013-11-23 16:44:00,32.0,18.6,30.25,NNW,338,0.0,0.4,57,0.00,,,0.00,WUHU216HW,2013-11-23 23:44:00,
2013-11-23 16:49:00,31.9,18.4,30.25,NNW,338,0.0,0.4,57,0.00,,,0.00,WUHU216HW,2013-11-23 23:49:00,
2013-11-23 16:54:00,31.9,18.4,30.25,NW,315,0.0,0.0,57,0.00,,,0.00,WUHU216HW,2013-11-23 23:54:00,
2013-11-23 16:59:00,31.7,18.2,30.25,West,270,0.0,0.0,57,0.00,,,0.00,WUHU216HW,2013-11-23 23:59:00,
2013-11-23 17:04:00,31.5,18.5,30.25,SW,225,0.0,0.0,58,0.00,,,0.00,WUHU216HW,2013-11-24 00:04:00,
2013-11-23 17:09:00,31.3,18.3,30.25,WNW,293,0.0,0.0,58,0.00,,,0.00,WUHU216HW,2013-11-24 00:09:00,
2013-11-23 17:14:00,31.3,18.3,30.25,West,270,0.0,0.0,58,0.00,,,0.00,WUHU216HW,2013-11-24 00:14:00,
2013-11-23 17:19:00,31.1,18.5,30.25,SSW,203,0.0,0.0,59,0.00,,,0.00,WUHU216HW,2013-11-24 00:19:00,
2013-11-23 17:24:00,30.8,18.1,30.25,SW,225,0.0,0.0,59,0.00,,,0.00,WUHU216HW,2013-11-24 00:24:00,
2013-11-23 17:29:00,30.6,17.9,30.25,SW,225,0.0,0.0,59,0.00,,,0.00,WUHU216HW,2013-11-24 00:29:00,
2013-11-23 17:34:00,30.6,18.4,30.24,SW,225,0.0,0.0,60,0.00,,,0.00,WUHU216HW,2013-11-24 00:34:00,
2013-11-23 17:39:00,30.6,18.4,30.25,WSW,248,0.0,0.0,60,0.00,,,0.00,WUHU216HW,2013-11-24 00:39:00,
2013-11-23 17:44:00,30.4,18.2,30.24,WSW,248,0.0,0.0,60,0.00,,,0.00,WUHU216HW,2013-11-24 00:44:00,
2013-11-23 17:49:00,30.2,18.4,30.24,SW,225,0.0,0.0,61,0.00,,,0.00,WUHU216HW,2013-11-24 00:49:00,
2013-11-23 17:54:00,30.1,18.2,30.24,SW,225,0.0,0.0,61,0.00,,,0.00,WUHU216HW,2013-11-24 00:54:00,
2013-11-23 17:59:00,29.9,18.0,30.24,SW,225,0.0,0.0,61,0.00,,,0.00,WUHU216HW,2013-11-24 00:59:00,
2013-11-23 18:04:00,29.7,18.3,30.23,SSW,203,0.0,0.0,62,0.00,,,0.00,WUHU216HW,2013-11-24 01:04:00,
2013-11-23 18:09:00,29.7,18.3,30.24,SW,225,0.0,0.0,62,0.00,,,0.00,WUHU216HW,2013-11-24 01:09:00,
2013-11-23 18:14:00,29.5,18.1,30.24,SSW,203,0.0,0.0,62,0.00,,,0.00,WUHU216HW,2013-11-24 01:14:00,
2013-11-23 18:19:00,29.5,18.1,30.23,South,180,0.0,0.0,62,0.00,,,0.00,WUHU216HW,2013-11-24 01:19:00,
2013-11-23 18:24:00,29.3,17.9,30.23,South,180,0.0,0.0,62,0.00,,,0.00,WUHU216HW,2013-11-24 01:24:00,
2013-11-23 18:29:00,29.2,17.7,30.23,SSW,203,1.1,2.2,62,0.00,,,0.00,WUHU216HW,2013-11-24 01:29:00,
2013-11-23 18:34:00,29.2,17.7,30.23,SSW,203,0.0,2.2,62,0.00,,,0.00,WUHU216HW,2013-11-24 01:34:00,
2013-11-23 18:39:00,29.2,17.7,30.23,SSW,203,0.0,0.7,62,0.00,,,0.00,WUHU216HW,2013-11-24 01:39:00,
2013-11-23 18:44:00,29.2,17.7,30.23,SSW,203,0.0,0.0,62,0.00,,,0.00,WUHU216HW,2013-11-24 01:44:00,
2013-11-23 18:49:00,29.3,18.3,30.23,SSW,203,0.0,0.0,63,0.00,,,0.00,WUHU216HW,2013-11-24 01:49:00,
2013-11-23 18:54:00,29.3,18.3,30.23,SSW,203,0.0,0.0,63,0.00,,,0.00,WUHU216HW,2013-11-24 01:54:00,
2013-11-23 18:59:00,29.3,18.3,30.23,South,180,0.0,0.0,63,0.00,,,0.00,WUHU216HW,2013-11-24 01:59:00,
2013-11-23 19:04:00,29.3,18.3,30.23,SSW,203,2.5,2.5,63,0.00,,,0.00,WUHU216HW,2013-11-24 02:04:00,
2013-11-23 19:09:00,29.3,17.9,30.23,SSW,203,0.0,2.9,62,0.00,,,0.00,WUHU216HW,2013-11-24 02:09:00,
2013-11-23 19:14:00,29.2,17.7,30.23,South,180,0.0,2.9,62,0.00,,,0.00,WUHU216HW,2013-11-24 02:14:00,
2013-11-23 19:19:00,29.2,17.7,30.23,SSW,203,2.9,3.6,62,0.00,,,0.00,WUHU216HW,2013-11-24 02:19:00,
2013-11-23 19:24:00,28.8,17.5,30.23,SSW,203,1.1,3.6,62,0.00,,,0.00,WUHU216HW,2013-11-24 02:24:00,
2013-11-23 19:29:00,28.8,17.5,30.22,South,180,1.6,3.4,62,0.00,,,0.00,WUHU216HW,2013-11-24 02:29:00,
2013-11-23 19:34:00,28.6,17.3,30.22,SSW,203,0.0,2.2,62,0.00,,,0.00,WUHU216HW,2013-11-24 02:34:00,
2013-11-23 19:39:00,28.8,17.5,30.22,SSW,203,0.0,1.8,62,0.00,,,0.00,WUHU216HW,2013-11-24 02:39:00,
2013-11-23 19:44:00,28.6,17.3,30.22,SSW,203,1.1,2.2,62,0.00,,,0.00,WUHU216HW,2013-11-24 02:44:00,
2013-11-23 19:49:00,28.6,17.3,30.22,South,180,0.0,2.2,62,0.00,,,0.00,WUHU216HW,2013-11-24 02:49:00,
2013-11-23 19:54:00,28.6,17.3,30.22,SSW,203,1.8,2.5,62,0.00,,,0.00,WUHU216HW,2013-11-24 02:54:00,
2013-11-23 19:59:00,28.4,17.1,30.21,SSW,203,0.0,2.5,62,0.00,,,0.00,WUHU216HW,2013-11-24 02:59:00,
2013-11-23 20:04:00,28.4,17.1,30.21,South,180,1.3,2.5,62,0.00,,,0.00,WUHU216HW,2013-11-24 03:04:00,
2013-11-23 20:09:00,28.3,16.9,30.21,SSW,203,2.0,2.5,62,0.00,,,0.00,WUHU216HW,2013-11-24 03:09:00,
2013-11-23 20:14:00,28.3,16.9,30.21,SSW,203,2.7,2.7,62,0.00,,,0.00,WUHU216HW,2013-11-24 03:14:00,
2013-11-23 20:19:00,28.3,17.3,30.21,SSW,203,3.8,4.0,63,0.00,,,0.00,WUHU216HW,2013-11-24 03:19:00,
2013-11-23 20:24:00,28.3,17.3,30.21,SSW,203,2.7,4.0,63,0.00,,,0.00,WUHU216HW,2013-11-24 03:24:00,
2013-11-23 20:29:00,28.3,17.3,30.20,WSW,248,0.0,3.8,63,0.00,,,0.00,WUHU216HW,2013-11-24 03:29:00,
2013-11-23 20:34:00,28.3,17.3,30.20,West,270,0.0,2.9,63,0.00,,,0.00,WUHU216HW,2013-11-24 03:34:00,
2013-11-23 20:39:00,28.3,17.3,30.20,NW,315,0.0,0.0,63,0.00,,,0.00,WUHU216HW,2013-11-24 03:39:00,
2013-11-23 20:44:00,28.3,17.6,30.20,WNW,293,0.0,0.0,64,0.00,,,0.00,WUHU216HW,2013-11-24 03:44:00,
2013-11-23 20:49:00,28.3,17.6,30.20,SW,225,0.0,0.0,64,0.00,,,0.00,WUHU216HW,2013-11-24 03:49:00,
2013-11-23 20:54:00,28.3,17.6,30.20,SSW,203,0.0,0.0,64,0.00,,,0.00,WUHU216HW,2013-11-24 03:54:00,
2013-11-23 20:59:00,28.3,17.6,30.19,SSW,203,2.5,2.5,64,0.00,,,0.00,WUHU216HW,2013-11-24 03:59:00,
2013-11-23 21:04:00,28.1,17.5,30.19,SSW,203,1.6,2.5,64,0.00,,,0.00,WUHU216HW,2013-11-24 04:04:00,
2013-11-23 21:09:00,27.9,17.3,30.19,South,180,1.1,2.5,64,0.00,,,0.00,WUHU216HW,2013-11-24 04:09:00,
2013-11-23 21:14:00,27.7,17.1,30.19,SSE,158,1.3,2.5,64,0.00,,,0.00,WUHU216HW,2013-11-24 04:14:00,
2013-11-23 21:19:00,27.7,17.1,30.19,South,180,0.0,2.2,64,0.00,,,0.00,WUHU216HW,2013-11-24 04:19:00,
2013-11-23 21:24:00,27.7,17.1,30.19,SSE,158,0.0,0.7,64,0.00,,,0.00,WUHU216HW,2013-11-24 04:24:00,
2013-11-23 21:29:00,27.7,17.1,30.19,SSE,158,1.1,1.8,64,0.00,,,0.00,WUHU216HW,2013-11-24 04:29:00,
2013-11-23 21:34:00,27.7,17.1,30.19,SSE,158,0.0,1.8,64,0.00,,,0.00,WUHU216HW,2013-11-24 04:34:00,
2013-11-23 21:39:00,27.9,17.3,30.19,SSE,158,1.6,1.6,64,0.00,,,0.00,WUHU216HW,2013-11-24 04:39:00,
2013-11-23 21:44:00,27.9,17.3,30.19,South,180,1.1,2.5,64,0.00,,,0.00,WUHU216HW,2013-11-24 04:44:00,
2013-11-23 21:49:00,27.9,17.3,30.18,South,180,1.8,2.5,64,0.00,,,0.00,WUHU216HW,2013-11-24 04:49:00,
2013-11-23 21:54:00,28.1,17.5,30.18,South,180,1.6,2.2,64,0.00,,,0.00,WUHU216HW,2013-11-24 04:54:00,
2013-11-23 21:59:00,28.1,17.5,30.18,SSW,203,0.9,2.5,64,0.00,,,0.00,WUHU216HW,2013-11-24 04:59:00,
2013-11-23 22:01:00,28.1,17.5,30.18,South,180,1.8,2.5,64,0.00,,,0.00,WUHU216HW,2013-11-24 05:01:00,
2013-11-23 22:02:00,28.1,17.8,30.18,South,180,2.5,2.7,65,0.00,,,0.00,WUHU216HW,2013-11-24 05:02:00,
2013-11-23 22:07:00,28.1,17.5,30.18,South,180,2.2,3.6,64,0.00,,,0.00,WUHU216HW,2013-11-24 05:07:00,
2013-11-23 22:12:00,28.1,17.8,30.18,SSW,203,2.5,3.6,65,0.00,,,0.00,WUHU216HW,2013-11-24 05:12:00,
2013-11-23 22:17:00,28.1,17.8,30.17,SSE,158,0.4,2.7,65,0.00,,,0.00,WUHU216HW,2013-11-24 05:17:00,
2013-11-23 22:22:00,27.9,17.6,30.18,SSW,203,0.0,2.5,65,0.00,,,0.00,WUHU216HW,2013-11-24 05:22:00,
2013-11-23 22:27:00,28.1,17.8,30.17,SSE,158,0.0,0.9,65,0.00,,,0.00,WUHU216HW,2013-11-24 05:27:00,
2013-11-23 22:32:00,28.3,18.0,30.17,SSW,203,0.0,0.4,65,0.00,,,0.00,WUHU216HW,2013-11-24 05:32:00,
2013-11-23 22:37:00,28.3,18.0,30.17,South,180,0.0,0.0,65,0.00,,,0.00,WUHU216HW,2013-11-24 05:37:00,
2013-11-23 22:42:00,28.3,18.0,30.17,SSW,203,0.0,0.0,65,0.00,,,0.00,WUHU216HW,2013-11-24 05:42:00,
2013-11-23 22:47:00,28.4,18.2,30.17,South,180,1.8,2.7,65,0.00,,,0.00,WUHU216HW,2013-11-24 05:47:00,
2013-11-23 22:52:00,28.4,18.2,30.17,SSW,203,1.3,2.7,65,0.00,,,0.00,WUHU216HW,2013-11-24 05:52:00,
2013-11-23 22:57:00,28.4,18.2,30.16,SSW,203,0.0,2.7,65,0.00,,,0.00,WUHU216HW,2013-11-24 05:57:00,
2013-11-23 23:02:00,28.4,18.5,30.17,SSW,203,0.0,2.2,66,0.00,,,0.00,WUHU216HW,2013-11-24 06:02:00,
2013-11-23 23:07:00,28.6,18.7,30.17,WSW,248,0.0,0.0,66,0.00,,,0.00,WUHU216HW,2013-11-24 06:07:00,
2013-11-23 23:12:00,28.6,18.4,30.16,NW,315,0.0,0.0,65,0.00,,,0.00,WUHU216HW,2013-11-24 06:12:00,
2013-11-23 23:17:00,28.6,18.4,30.16,NNW,338,0.0,0.0,65,0.00,,,0.00,WUHU216HW,2013-11-24 06:17:00,
2013-11-23 23:22:00,28.6,18.4,30.15,NNW,338,0.0,0.0,65,0.00,,,0.00,WUHU216HW,2013-11-24 06:22:00,
2013-11-23 23:27:00,28.6,18.4,30.16,East,90,0.0,0.0,65,0.00,,,0.00,WUHU216HW,2013-11-24 06:27:00,
2013-11-23 23:32:00,28.6,18.4,30.15,ESE,113,0.0,0.0,65,0.00,,,0.00,WUHU216HW,2013-11-24 06:32:00,
2013-11-23 23:37:00,28.6,18.7,30.15,SE,135,0.0,0.0,66,0.00,,,0.00,WUHU216HW,2013-11-24 06:37:00,
2013-11-23 23:42:00,28.6,18.7,30.16,SSE,158,0.0,0.0,66,0.00,,,0.00,WUHU216HW,2013-11-24 06:42:00,
2013-11-23 23:47:00,28.8,18.9,30.15,South,180,0.0,0.0,66,0.00,,,0.00,WUHU216HW,2013-11-24 06:47:00,
2013-11-23 23:52:00,29.0,19.0,30.15,SSE,158,0.0,0.0,66,0.00,,,0.00,WUHU216HW,2013-11-24 06:52:00,
2013-11-23 23:57:00,29.0,19.0,30.14,NE,45,0.0,0.0,66,0.00,,,0.00,WUHU216HW,2013-11-24 06:57:00,